Regional Weather Roundup
Issued by NWS Albany, NY

Home | Current Version | Previous Version | Text Only | Print | Product List | Glossary On
Versions: 1 2 3 4 5 6 7 8 9 10 11 12 13 14 15 16 17 18 19 20 21 22 23 24 25 26 27 28 29 30 31 32 33 34 35 36 37 38 39 40 41 42 43 44 45 46 47 48 49 50
000
ASUS41 KALY 300610
RWRALY

NEW YORK STATE HOURLY WEATHER ROUNDUP
NATIONAL WEATHER SERVICE ALBANY NY
200 AM EDT SUN AUG 30 2015

NOTE: "FAIR" INDICATES FEW OR NO CLOUDS BELOW 12,000 FEET WITH NO
SIGNIFICANT WEATHER AND/OR NO OBSTRUCTIONS TO VISIBILITY.

NYZ032-033-038>043-046>054-057>066-NYZ062>081-300700-
EAST


CITY           SKY/WX    TMP DP  RH WIND       PRES   REMARKS
ALBANY         FAIR      66  59  78 S3        30.08F
GLENS FALLS    FAIR      63  60  90 CALM      30.07S
POUGHKEEPSIE   FAIR      65  61  87 CALM      30.07F
NEWBURGH       PTCLDY    66  63  88 CALM      30.11F
MONTGOMERY     FAIR      62  60  93 CALM      30.09F
WHITE PLAINS   FAIR      70  61  73 CALM      30.10F
ISLIP          MOCLDY    73  65  75 SW8       30.09F
NEW YORK CITY  MOCLDY    75  59  57 SW10      30.09F
CENTRAL PARK   FAIR      74  58  57 CALM      30.13F
$$

NYZ005>009-017-018-044>046-055-056-300700-
CENTRAL


CITY           SKY/WX    TMP DP  RH WIND       PRES   REMARKS
FULTON         CLOUDY    64  60  87 CALM      30.08F
SYRACUSE       CLOUDY    64  61  90 SE5       30.08F
ROME           MOCLDY    62  59  90 CALM      30.11S
ELMIRA         CLOUDY    61  60  97 CALM      30.10F
BINGHAMTON     FAIR      63  59  87 CALM      30.12F
MONTICELLO     FAIR      61  59  94 CALM      30.14F
$$

NYZ026>034-041>043-300700-
NORTH


CITY           SKY/WX    TMP DP  RH WIND       PRES   REMARKS
WATERTOWN      FAIR      58  56  93 CALM      30.08S FOG
FORT DRUM      NOT AVBL
MASSENA        FAIR      62  60  93 SW7       30.06F
SARANAC LAKE   FAIR      58  55  90 SW3       30.09F
PLATTSBURGH    FAIR      67  58  72 CALM      30.04F
$$

NYZ001>004-010>016-019>021-300700-
WEST


CITY           SKY/WX    TMP DP  RH WIND       PRES   REMARKS
NIAGARA FALLS  CLOUDY    68  59  73 SW3       30.06F
BUFFALO        CLOUDY    69  61  75 CALM      30.07F
DUNKIRK        CLOUDY    65  64  97 CALM      30.07F
JAMESTOWN      CLOUDY    63  59  88 CALM      30.11F
WELLSVILLE     CLOUDY    61  58  90 S3        30.15F
ROCHESTER      CLOUDY    69  62  78 CALM      30.08F
PENN YAN       CLOUDY    65  63  93 CALM      30.10F
$$

             KEY
       WCI = WIND CHILL INDEX
       VSB = VISIBILITY
       HX  = HEAT INDEX
$$



USA.gov is the U.S. government's official web portal to all federal, state and local government web resources and services.